"datetime","# probes","# resolvers","can_ipv6","can_ipv6_prbs","can_tcp","can_tcp_prbs","can_tcp6","can_tcp6_prbs","does_ecs","does_ecs_prbs","does_flagday","does_flagday_prbs","does_rov4","does_rov4_prbs","does_rov6","does_rov6_prbs","does_qnamemin","doesnt_qnamemin","does_qnamemin_prbs","doesnt_qnamemin_prbs","does_nxdomain","doesnt_nxdomain","does_nxdomain_prbs","doesnt_nxdomain_prbs","has_ta_19036","hasnt_ta_19036","has_ta_19036_prbs","hasnt_ta_19036_prbs","has_ta_20326","hasnt_ta_20326","has_ta_20326_prbs","hasnt_ta_20326_prbs","can_rsamd5","cannot_rsamd5","broken_rsamd5","can_rsamd5_prbs","cannot_rsamd5_prbs","broken_rsamd5_prbs","can_dsa","cannot_dsa","broken_dsa","can_dsa_prbs","cannot_dsa_prbs","broken_dsa_prbs","can_rsasha1","cannot_rsasha1","broken_rsasha1","can_rsasha1_prbs","cannot_rsasha1_prbs","broken_rsasha1_prbs","can_dsansec3","cannot_dsansec3","broken_dsansec3","can_dsansec3_prbs","cannot_dsansec3_prbs","broken_dsansec3_prbs","can_rsansec3","cannot_rsansec3","broken_rsansec3","can_rsansec3_prbs","cannot_rsansec3_prbs","broken_rsansec3_prbs","can_rsasha256","cannot_rsasha256","broken_rsasha256","can_rsasha256_prbs","cannot_rsasha256_prbs","broken_rsasha256_prbs","can_rsasha512","cannot_rsasha512","broken_rsasha512","can_rsasha512_prbs","cannot_rsasha512_prbs","broken_rsasha512_prbs","can_eccgost","cannot_eccgost","broken_eccgost","can_eccgost_prbs","cannot_eccgost_prbs","broken_eccgost_prbs","can_ecdsa256","cannot_ecdsa256","broken_ecdsa256","can_ecdsa256_prbs","cannot_ecdsa256_prbs","broken_ecdsa256_prbs","can_ecdsa384","cannot_ecdsa384","broken_ecdsa384","can_ecdsa384_prbs","cannot_ecdsa384_prbs","broken_ecdsa384_prbs","can_ed25519","cannot_ed25519","broken_ed25519","can_ed25519_prbs","cannot_ed25519_prbs","broken_ed25519_prbs","can_ed448","cannot_ed448","broken_ed448","can_ed448_prbs","cannot_ed448_prbs","broken_ed448_prbs","can_gost","cannot_gost","broken_gost","can_gost_prbs","cannot_gost_prbs","broken_gost_prbs","can_sha384","cannot_sha384","broken_sha384","can_sha384_prbs","cannot_sha384_prbs","broken_sha384_prbs","is_internal","is_forwarding","is_external","is_internal_prbs","is_forwarding_prbs","is_external_prbs"
2018-07-19T23:59:58Z,12,16,10,10,16,12,10,10,0,1,0,0,0,0,0,0,8,8,7,10,0,16,0,12,16,0,12,0,16,0,12,0,5,11,0,5,9,1,16,0,0,12,3,0,16,0,0,12,3,0,16,0,0,12,3,0,16,0,0,12,3,0,16,0,0,12,3,0,16,0,0,12,3,0,0,16,0,3,12,0,14,2,0,11,4,0,14,2,0,11,4,0,0,16,0,0,12,0,0,16,0,0,12,0,0,16,0,4,12,0,14,2,0,11,4,0,0,0,16,3,2,12
2018-07-20T23:59:56Z,14,18,11,11,18,14,11,11,1,2,0,0,0,0,0,0,8,10,7,13,0,18,0,14,16,0,12,0,18,0,14,0,6,11,1,6,9,2,17,1,0,13,5,0,18,0,0,14,4,0,17,1,0,13,5,0,18,0,0,14,4,0,18,0,0,14,4,0,18,0,0,14,4,0,0,18,0,3,14,0,16,2,0,13,5,0,16,2,0,13,5,0,0,18,0,0,14,0,0,18,0,0,14,0,1,17,0,5,13,0,16,2,0,13,5,0,0,0,18,4,2,14
2018-07-21T23:59:56Z,14,18,10,11,17,14,10,11,0,2,0,0,0,0,0,0,8,9,7,13,0,18,0,14,16,1,13,1,18,0,14,0,6,12,0,6,10,2,18,0,0,14,5,0,18,0,0,14,4,0,18,0,0,14,5,0,18,0,0,14,4,0,18,0,0,14,4,0,18,0,0,14,4,0,0,18,0,3,14,0,16,2,0,13,5,0,15,2,0,13,5,0,0,17,0,0,14,0,0,17,0,0,14,0,0,18,0,5,14,0,16,2,0,13,5,0,0,0,18,4,2,14
2018-07-22T23:59:57Z,14,18,10,11,17,14,10,11,1,3,0,0,0,0,0,0,8,9,7,13,0,18,0,14,17,1,13,1,18,0,14,0,5,13,0,5,11,2,18,0,0,14,5,0,18,0,0,14,4,0,18,0,0,14,5,0,18,0,0,14,4,0,18,0,0,14,4,0,18,0,0,14,4,0,1,17,0,4,13,0,16,2,0,13,5,0,16,2,0,13,5,0,0,18,0,0,14,0,0,18,0,0,14,0,1,17,0,6,13,0,16,2,0,13,5,0,0,0,18,4,2,14
2018-07-23T23:59:58Z,13,17,10,10,17,13,10,10,0,1,0,0,0,0,0,0,8,9,7,12,0,17,0,13,17,0,13,0,17,0,13,0,6,11,0,6,9,1,17,0,0,13,4,0,17,0,0,13,4,0,17,0,0,13,4,0,17,0,0,13,4,0,17,0,0,13,4,0,17,0,0,13,4,0,0,17,0,3,13,0,15,2,0,12,5,0,15,2,0,12,5,0,0,17,0,0,13,0,0,17,0,0,13,0,0,17,0,4,13,0,15,2,0,12,5,0,0,0,17,4,2,13
2018-07-24T23:59:57Z,14,18,10,11,17,14,10,11,1,3,0,0,0,0,0,0,8,9,7,13,0,18,0,14,18,0,14,0,18,0,14,0,5,13,0,5,11,2,18,0,0,14,5,0,18,0,0,14,4,0,18,0,0,14,5,0,18,0,0,14,4,0,18,0,0,14,4,0,18,0,0,14,4,0,1,17,0,4,13,0,16,2,0,13,5,0,16,2,0,13,5,0,0,18,0,0,14,0,0,18,0,0,14,0,1,17,0,6,13,0,16,2,0,13,5,0,0,0,18,4,2,14
2018-07-25T23:59:56Z,14,19,10,10,19,14,10,10,1,2,0,0,0,0,0,0,8,11,7,13,0,19,0,14,18,1,14,1,19,0,14,0,7,12,0,6,10,1,19,0,0,14,4,0,19,0,0,14,4,0,19,0,0,14,4,0,19,0,0,14,4,0,19,0,0,14,4,0,19,0,0,14,4,0,1,18,0,4,13,0,17,2,0,13,5,0,17,2,0,13,5,0,0,19,0,0,14,0,0,19,0,0,14,0,1,18,0,5,13,0,17,2,0,13,5,0,0,0,19,4,2,14
2018-07-26T23:59:59Z,15,20,10,11,19,15,10,11,1,3,0,0,0,0,0,0,8,11,7,14,0,20,0,15,19,0,14,0,20,0,15,0,7,13,0,5,11,2,20,0,0,15,5,0,20,0,0,15,4,0,20,0,0,15,5,0,20,0,0,15,4,0,20,0,0,15,4,0,20,0,0,15,4,0,1,19,0,4,14,0,18,2,0,14,5,0,18,2,0,14,5,0,0,20,0,0,15,0,0,20,0,0,15,0,1,19,0,6,14,0,18,2,0,14,5,0,0,0,20,4,2,15
2018-07-27T23:59:57Z,15,20,10,11,19,15,10,11,1,3,0,0,0,0,0,0,8,11,7,14,0,20,0,15,19,0,14,0,20,0,15,0,7,13,0,6,11,2,20,0,0,15,5,0,20,0,0,15,4,0,20,0,0,15,5,0,20,0,0,15,4,0,20,0,0,15,4,0,20,0,0,15,4,0,1,19,0,4,14,0,18,2,0,14,5,0,18,2,0,14,5,0,0,20,0,0,15,0,0,20,0,0,15,0,1,19,0,6,14,0,18,2,0,14,5,0,0,0,20,4,2,15
2018-07-28T23:59:55Z,16,21,10,11,21,16,10,11,1,3,0,0,0,0,0,0,8,12,7,15,0,21,0,16,19,0,14,0,21,0,16,0,7,14,0,6,12,3,20,1,0,15,6,1,20,0,1,15,4,1,20,1,0,15,6,1,20,1,0,15,5,1,20,1,0,15,5,1,20,1,0,15,5,1,2,19,0,5,14,1,18,2,1,14,5,1,18,3,0,14,6,1,0,20,1,0,15,1,1,20,0,1,15,1,1,20,0,6,15,1,18,3,0,14,6,1,0,0,21,4,3,16
2018-07-29T23:59:57Z,15,20,11,12,20,15,11,12,1,3,0,0,0,0,0,0,8,11,7,14,0,20,0,15,18,1,13,1,20,0,15,0,7,12,1,6,11,3,19,1,0,14,6,0,20,0,0,15,5,0,19,1,0,14,6,0,20,0,0,15,5,0,20,0,0,15,5,0,20,0,0,15,5,0,0,20,0,3,15,0,18,2,0,14,6,0,18,2,0,14,6,0,0,20,0,0,15,0,0,20,0,0,15,0,1,19,0,6,15,0,18,2,0,14,6,0,0,0,20,5,2,15
2018-07-30T23:59:59Z,14,19,9,10,19,14,9,10,1,3,0,0,0,0,0,0,7,11,6,13,0,19,0,14,18,0,13,0,19,0,14,0,7,12,0,5,10,2,19,0,0,14,4,0,19,0,0,14,3,0,19,0,0,14,4,0,19,0,0,14,3,0,19,0,0,14,3,0,19,0,0,14,3,0,1,18,0,4,13,0,17,2,0,13,4,0,17,2,0,13,4,0,0,19,0,0,14,0,0,19,0,0,14,0,1,18,0,6,13,0,17,2,0,13,4,0,0,0,19,3,2,14
2018-07-31T23:59:58Z,14,19,9,10,19,14,9,10,1,3,0,0,0,0,0,0,7,11,6,13,0,19,0,14,18,0,13,0,19,0,14,0,7,12,0,6,10,2,19,0,0,14,4,0,19,0,0,14,3,0,19,0,0,14,4,0,19,0,0,14,3,0,19,0,0,14,3,0,19,0,0,14,3,0,1,18,0,4,13,0,17,2,0,13,4,0,17,2,0,13,4,0,0,19,0,0,14,0,0,19,0,0,14,0,1,18,0,6,13,0,17,2,0,13,4,0,0,0,19,3,2,14
2018-08-01T23:59:57Z,16,21,11,12,21,16,11,12,1,3,0,0,0,0,0,0,9,11,8,14,0,21,0,16,19,1,14,1,21,0,16,0,7,14,0,6,12,2,20,1,0,15,6,0,21,0,0,16,4,0,20,1,0,15,6,0,21,0,0,16,4,0,21,0,0,16,4,0,21,0,0,16,4,0,1,20,0,4,15,0,19,2,0,15,5,0,19,2,0,15,5,0,1,20,0,1,15,0,0,21,0,0,16,0,1,20,0,6,15,0,19,2,0,15,5,0,0,0,21,4,3,16
2018-08-02T23:59:59Z,30,44,35,27,44,30,35,27,1,3,0,0,0,0,0,0,32,11,22,23,0,44,0,30,42,1,28,1,44,0,30,0,7,36,1,5,25,3,43,1,0,29,15,0,44,0,0,30,13,0,43,1,0,29,15,0,44,0,0,30,13,0,44,0,0,30,13,0,44,0,0,30,13,0,0,44,0,3,30,0,42,2,0,29,14,0,42,2,0,29,14,0,0,44,0,0,30,0,0,44,0,0,30,0,1,43,0,6,29,0,42,2,0,29,14,0,0,0,44,4,2,30
2018-08-03T23:59:59Z,29,43,34,26,43,29,34,26,0,2,0,0,0,0,0,0,32,10,22,22,0,43,0,29,42,0,28,0,43,0,29,0,7,36,0,6,25,2,43,0,0,29,14,0,43,0,0,29,13,0,43,0,0,29,14,0,43,0,0,29,13,0,43,0,0,29,13,0,43,0,0,29,13,0,0,43,0,3,29,0,41,2,0,28,14,0,41,2,0,28,14,0,0,43,0,0,29,0,0,43,0,0,29,0,0,43,0,5,29,0,41,2,0,28,14,0,0,0,43,4,2,29
2018-08-04T23:59:59Z,29,43,33,25,43,29,33,25,1,3,0,0,0,0,0,0,31,11,21,23,0,43,0,29,42,0,28,0,43,0,29,0,7,36,0,5,25,2,43,0,0,29,14,0,43,0,0,29,13,0,43,0,0,29,14,0,43,0,0,29,13,0,43,0,0,29,13,0,43,0,0,29,13,0,1,42,0,4,28,0,41,2,0,28,14,0,41,2,0,28,14,0,0,43,0,0,29,0,0,43,0,0,29,0,1,42,0,6,28,0,41,2,0,28,14,0,0,0,43,4,2,29
2018-08-05T23:59:58Z,29,43,33,25,43,29,33,25,1,3,0,0,0,0,0,0,31,11,21,23,0,43,0,29,42,0,28,0,43,0,29,0,7,36,0,6,25,2,43,0,0,29,14,0,43,0,0,29,13,0,43,0,0,29,14,0,43,0,0,29,13,0,43,0,0,29,13,0,43,0,0,29,13,0,1,42,0,5,28,0,41,2,0,28,14,0,41,2,0,28,14,0,0,43,0,0,29,0,0,43,0,0,29,0,1,42,0,7,28,0,41,2,0,28,14,0,0,0,43,4,2,29
2018-08-06T23:59:59Z,32,46,36,28,46,32,36,28,1,4,0,0,0,0,0,0,34,11,24,25,0,46,0,32,42,1,28,1,46,0,32,0,7,39,0,6,28,3,43,3,0,30,16,0,46,0,0,32,12,0,43,3,0,31,16,0,46,0,0,32,12,0,46,0,0,32,12,0,46,0,0,32,12,0,1,45,0,4,31,0,44,2,0,31,13,0,44,2,0,31,13,0,3,43,0,3,31,0,0,46,0,0,32,0,1,45,0,7,31,0,44,2,0,31,13,0,0,0,46,4,3,32
2018-08-07T23:59:59Z,30,44,34,26,44,30,34,26,1,3,0,0,0,0,0,0,32,11,22,23,0,44,0,30,43,0,29,0,44,0,30,0,7,37,0,5,26,2,43,1,0,29,15,0,44,0,0,30,13,0,44,0,0,30,14,0,44,0,0,30,13,0,44,0,0,30,13,0,44,0,0,30,13,0,1,43,0,4,29,0,41,2,1,28,14,1,41,2,1,28,14,1,1,43,0,1,29,0,1,43,0,1,29,0,1,43,0,6,29,0,42,2,0,29,14,0,0,0,44,4,2,30
2018-08-08T23:59:58Z,31,45,35,27,45,31,35,27,2,4,0,0,0,0,0,0,32,12,22,24,0,45,0,31,42,1,28,1,45,0,31,0,7,37,1,6,26,3,43,2,0,29,16,1,44,1,0,30,14,1,43,2,0,29,16,1,44,1,0,30,14,1,44,1,0,30,14,1,44,0,1,30,13,2,1,44,0,4,30,1,42,3,0,29,15,1,42,3,0,29,15,1,0,45,0,0,31,1,0,45,0,0,31,1,2,43,0,7,29,1,42,3,0,29,15,1,0,0,45,4,2,31
2018-08-09T23:59:59Z,29,43,34,26,43,29,34,26,0,2,0,0,0,0,0,0,32,10,22,22,0,43,0,29,42,0,28,0,43,0,29,0,7,36,0,6,25,2,43,0,0,29,14,0,43,0,0,29,13,0,43,0,0,29,14,0,43,0,0,29,13,0,43,0,0,29,13,0,43,0,0,29,13,0,0,43,0,3,29,0,41,2,0,28,14,0,41,2,0,28,14,0,0,43,0,0,29,0,0,43,0,0,29,0,0,43,0,5,29,0,41,2,0,28,14,0,0,0,43,4,2,29
2018-08-10T23:59:59Z,32,46,36,28,46,32,36,28,3,6,0,0,0,0,0,0,32,13,22,26,0,46,0,32,44,0,30,0,46,0,32,0,8,37,1,7,27,5,45,1,0,31,17,0,46,0,0,32,14,0,45,1,0,31,17,0,46,0,0,32,14,0,46,0,0,32,14,0,46,0,0,32,14,0,1,45,0,5,31,0,44,2,0,31,15,0,44,2,0,31,15,0,0,46,0,0,32,0,0,46,0,0,32,0,2,44,0,9,30,0,44,2,0,31,15,0,0,0,46,5,2,32
2018-08-11T23:59:57Z,33,47,37,29,47,33,37,29,4,7,0,0,0,0,0,0,33,13,23,26,0,47,0,33,45,0,31,0,47,0,33,0,8,38,1,7,28,5,46,1,0,32,17,0,47,0,0,33,14,0,46,1,0,32,17,0,47,0,0,33,14,0,47,0,0,33,14,0,47,0,0,33,14,0,1,46,0,5,32,0,45,2,0,32,15,0,45,2,0,32,15,0,0,47,0,0,33,0,0,47,0,0,33,0,2,45,0,9,31,0,45,2,0,32,15,0,0,0,47,5,2,33
2018-08-12T23:59:57Z,32,46,36,28,46,32,36,28,3,6,0,0,0,0,0,0,33,12,23,25,0,46,0,32,45,0,31,0,46,0,32,0,8,38,0,7,28,4,46,0,0,32,16,0,46,0,0,32,14,0,46,0,0,32,16,0,46,0,0,32,14,0,46,0,0,32,14,0,46,0,0,32,14,0,1,45,0,5,31,0,44,2,0,31,15,0,44,2,0,31,15,0,0,46,0,0,32,0,0,46,0,0,32,0,2,44,0,9,30,0,44,2,0,31,15,0,0,0,46,5,2,32
2018-08-13T23:59:59Z,36,50,40,32,50,36,39,32,5,9,0,0,0,0,0,0,35,14,25,28,0,50,0,36,46,1,32,1,50,0,36,0,9,39,2,8,30,7,48,2,0,34,19,0,50,0,0,36,15,0,48,2,0,34,19,0,50,0,0,36,15,0,50,0,0,36,15,0,50,0,0,36,15,0,1,49,0,5,35,0,48,2,0,35,16,0,48,2,0,35,16,0,0,50,0,0,36,0,0,50,0,0,36,0,3,47,0,11,34,0,48,2,0,35,16,0,0,0,50,6,2,36
2018-08-14T23:59:59Z,32,46,37,29,46,32,36,29,2,6,0,0,0,0,0,0,35,10,25,24,0,46,0,32,45,0,31,0,46,0,32,0,9,37,0,7,27,5,46,0,0,32,17,0,46,0,0,32,14,0,46,0,0,32,17,0,46,0,0,32,14,0,46,0,0,32,14,0,46,0,0,32,14,0,0,46,0,4,32,0,44,2,0,31,15,0,44,2,0,31,15,0,0,46,0,0,32,0,0,46,0,0,32,0,0,46,0,8,32,0,44,2,0,31,15,0,0,0,46,5,2,32
2018-08-15T23:59:55Z,35,50,40,31,50,35,39,31,3,7,0,0,0,0,0,0,37,12,27,26,0,50,0,35,49,0,34,0,50,0,35,0,10,40,0,8,30,5,49,1,0,34,18,0,50,0,0,35,14,0,49,1,0,34,18,0,50,0,0,35,14,0,50,0,0,35,14,0,50,0,0,35,14,0,1,49,0,5,34,0,48,2,0,34,15,0,48,2,0,34,15,0,0,50,0,0,35,0,0,50,0,0,35,0,1,49,0,9,34,0,48,2,0,34,15,0,0,0,50,5,4,35
2018-08-16T23:59:59Z,37,52,42,33,52,37,41,33,5,9,0,0,0,0,0,0,37,14,27,28,0,52,0,37,49,1,34,1,52,0,37,0,10,40,2,8,30,7,49,3,0,34,20,0,52,0,0,37,14,0,49,3,0,34,20,0,52,0,0,37,14,0,52,0,0,37,14,0,52,0,0,37,14,0,1,51,0,5,36,0,50,2,0,36,15,0,50,2,0,36,15,0,0,52,0,0,37,0,0,52,0,0,37,0,3,49,0,11,34,0,50,2,0,36,15,0,0,0,52,5,5,37
2018-08-17T23:59:57Z,35,50,40,31,50,35,40,31,3,7,0,0,0,0,0,0,37,12,27,26,0,50,0,35,49,0,34,0,50,0,35,0,10,40,0,8,30,5,49,1,0,34,18,0,50,0,0,35,14,0,49,1,0,34,18,0,50,0,0,35,14,0,50,0,0,35,14,0,50,0,0,35,14,0,1,49,0,5,34,0,48,2,0,34,15,0,48,2,0,34,15,0,0,50,0,0,35,0,0,50,0,0,35,0,1,49,0,9,34,0,48,2,0,34,15,0,0,0,50,5,4,35
2018-08-18T23:59:57Z,35,50,40,31,50,35,40,31,3,7,0,0,0,0,0,0,37,12,27,26,0,50,0,35,49,0,34,0,50,0,35,0,10,40,0,8,30,5,49,1,0,34,18,0,50,0,0,35,14,0,49,1,0,34,18,0,50,0,0,35,14,0,50,0,0,35,14,0,50,0,0,35,14,0,1,49,0,5,34,0,48,2,0,34,15,0,48,2,0,34,15,0,0,50,0,0,35,0,0,50,0,0,35,0,1,49,0,9,34,0,48,2,0,34,15,0,0,0,50,5,4,35
2018-08-19T23:59:58Z,35,50,40,31,50,35,40,31,3,7,0,0,0,0,0,0,37,12,27,26,0,50,0,35,49,0,34,0,50,0,35,0,10,40,0,8,30,5,49,1,0,34,18,0,50,0,0,35,14,0,49,1,0,34,18,0,50,0,0,35,14,0,50,0,0,35,14,0,50,0,0,35,14,0,1,49,0,5,34,0,48,2,0,34,15,0,48,2,0,34,15,0,0,50,0,0,35,0,0,50,0,0,35,0,1,49,0,9,34,0,48,2,0,34,15,0,0,0,50,5,4,35
2018-08-20T23:59:58Z,35,50,40,31,50,35,40,31,3,7,0,0,0,0,0,0,37,12,27,26,0,50,0,35,49,0,34,0,50,0,35,0,10,40,0,8,30,5,49,1,0,34,18,0,50,0,0,35,14,0,49,1,0,34,18,0,50,0,0,35,14,0,50,0,0,35,14,0,50,0,0,35,14,0,1,49,0,5,34,0,48,2,0,34,15,0,48,2,0,34,15,0,0,50,0,0,35,0,0,50,0,0,35,0,1,49,0,9,34,0,48,2,0,34,15,0,0,0,50,5,4,35
2018-08-21T23:59:58Z,37,52,42,33,52,37,42,33,4,8,0,0,0,0,0,0,38,13,28,27,0,52,0,37,50,0,35,0,52,0,37,0,10,41,1,8,32,6,50,2,0,35,19,0,52,0,0,37,14,0,50,2,0,35,19,0,52,0,0,37,14,0,52,0,0,37,14,0,52,0,0,37,14,0,1,51,0,5,36,0,50,2,0,36,15,0,50,2,0,36,15,0,0,52,0,1,37,0,0,52,0,0,37,0,3,49,0,11,35,0,50,2,0,36,15,0,0,0,52,6,4,37
2018-08-22T23:59:59Z,34,48,39,31,48,34,39,31,2,6,0,0,0,0,0,0,37,10,27,24,0,48,0,34,47,0,33,0,48,0,34,0,9,39,0,7,29,5,47,1,0,33,18,0,48,0,0,34,14,0,47,1,0,33,18,0,48,0,0,34,14,0,48,0,0,34,14,0,48,0,0,34,14,0,0,48,0,4,34,0,46,2,0,33,15,0,46,2,0,33,15,0,0,48,0,0,34,0,0,48,0,0,34,0,0,48,0,8,34,0,46,2,0,33,15,0,0,0,48,5,4,34
2018-08-23T23:59:58Z,36,52,42,32,44,33,34,28,3,7,0,0,0,0,0,0,39,12,28,27,0,52,0,36,51,0,35,0,52,0,36,0,10,42,0,8,31,5,51,1,0,35,19,0,52,0,0,36,15,0,51,1,0,35,19,0,52,0,0,36,15,0,52,0,0,36,15,0,52,0,0,36,15,0,2,50,0,6,34,0,50,2,0,35,16,0,50,2,0,35,16,0,0,52,0,0,36,0,0,52,0,0,36,0,2,50,0,10,34,0,50,2,0,35,16,0,0,0,52,5,4,36
2018-08-24T23:59:57Z,36,52,42,32,52,36,42,32,3,7,0,0,0,0,0,0,39,12,28,27,0,52,0,36,51,0,35,0,52,0,36,0,10,42,0,8,31,5,51,1,0,35,19,0,52,0,0,36,14,0,51,1,0,35,19,0,52,0,0,36,14,0,52,0,0,36,15,0,52,0,0,36,15,0,2,50,0,6,34,0,50,2,0,35,16,0,50,2,0,35,15,0,0,52,0,0,36,0,0,52,0,0,36,0,1,51,0,9,35,0,50,2,0,35,16,0,0,0,52,5,4,36
2018-08-25T23:59:59Z,37,52,43,34,52,37,43,34,3,7,0,0,0,0,0,0,40,11,29,26,0,52,0,37,50,0,35,0,52,0,37,0,9,42,1,7,31,6,49,3,0,34,21,0,52,0,0,37,14,0,49,3,0,34,21,0,52,0,0,37,14,0,52,0,0,37,14,0,52,0,0,37,14,0,0,52,0,4,37,0,50,2,0,36,15,0,50,2,0,36,15,0,1,51,0,3,36,0,0,52,0,0,37,0,1,51,0,9,36,0,50,2,0,36,15,0,0,0,52,5,5,37
2018-08-26T23:59:59Z,37,52,42,33,52,37,42,33,3,7,0,0,0,0,0,0,40,11,29,26,0,52,0,37,51,0,36,0,52,0,37,0,9,43,0,7,32,5,50,2,0,35,20,0,52,0,0,37,14,0,50,2,0,35,20,0,52,0,0,37,14,0,52,0,0,37,14,0,52,0,0,37,14,0,2,50,0,6,35,0,50,2,0,36,15,0,50,2,0,36,15,0,0,52,0,3,37,0,0,52,0,0,37,0,1,51,0,9,36,0,50,2,0,36,15,0,0,0,52,5,5,37
2018-08-27T23:59:58Z,37,53,43,33,53,37,43,33,3,7,0,0,0,0,0,0,40,12,29,26,0,53,0,37,52,0,36,0,53,0,37,0,10,43,0,8,32,5,51,2,0,35,19,0,53,0,0,37,13,0,51,2,0,35,19,0,53,0,0,37,13,0,53,0,0,37,13,0,53,0,0,37,13,0,1,52,0,5,36,0,51,2,0,36,14,0,51,2,0,36,14,0,0,53,0,4,37,0,0,53,0,0,37,0,2,51,0,10,35,0,51,2,0,36,14,0,0,0,53,4,5,37
2018-08-28T23:59:58Z,37,53,44,34,53,37,44,34,2,6,0,0,0,0,0,0,41,11,30,26,0,53,0,37,52,0,36,0,53,0,37,0,10,43,0,8,32,5,51,2,0,35,20,0,53,0,0,37,14,0,51,2,0,35,20,0,53,0,0,37,14,0,53,0,0,37,14,0,53,0,0,37,14,0,0,53,0,4,37,0,51,2,0,36,15,0,51,2,0,36,15,0,0,53,0,5,37,0,0,53,0,0,37,0,0,53,0,8,37,0,51,2,0,36,15,0,0,0,53,5,5,37
2018-08-29T23:59:58Z,39,55,45,35,55,39,45,35,3,7,0,0,0,0,0,0,42,12,31,27,0,55,0,39,54,0,38,0,55,0,39,0,10,45,0,8,34,5,52,3,0,36,21,0,55,0,0,39,14,0,52,3,0,36,21,0,55,0,0,39,14,0,55,0,0,39,14,0,55,0,0,39,14,0,1,54,0,5,38,0,53,2,0,38,15,0,53,2,0,38,15,0,0,55,0,5,39,0,0,55,0,0,39,0,2,53,0,10,37,0,53,2,0,38,15,0,0,0,55,5,6,39
2018-08-30T23:59:58Z,37,53,44,34,53,37,44,34,7,9,0,0,0,0,0,0,40,12,29,26,0,53,0,37,44,0,31,0,53,0,37,0,8,43,2,7,31,6,48,3,2,33,20,3,51,0,2,37,14,3,48,3,2,33,20,3,52,0,1,37,14,3,52,0,1,37,14,3,52,0,1,37,14,3,1,51,1,3,37,3,49,2,2,36,15,3,49,2,2,36,15,2,0,51,2,4,36,2,0,51,2,0,37,2,0,50,3,6,36,3,48,2,3,36,15,3,0,0,53,5,7,37
2018-08-31T23:59:58Z,39,55,45,35,55,39,45,35,8,12,0,0,0,0,0,0,40,14,29,29,0,55,0,39,53,0,37,0,55,0,39,0,10,43,2,9,32,7,51,3,1,36,21,1,54,0,1,39,14,1,51,3,1,36,21,1,54,0,1,39,14,1,54,0,1,39,14,1,54,0,1,39,14,1,2,52,1,6,37,1,52,2,1,38,15,1,52,2,1,38,15,1,1,53,1,6,38,1,0,54,1,0,39,1,2,52,1,10,37,1,52,2,1,38,15,1,0,0,55,6,6,39
2018-09-01T23:59:58Z,37,53,43,33,53,37,43,33,6,10,0,0,0,0,0,0,39,13,28,28,0,53,0,37,52,0,36,0,53,0,37,0,10,42,1,9,31,6,51,1,1,36,19,1,52,0,1,37,14,1,51,1,1,36,19,1,52,0,1,37,14,1,52,0,1,37,14,1,52,0,1,37,14,1,1,51,1,5,36,1,50,2,1,36,15,1,50,2,1,36,15,1,0,52,1,5,37,1,0,52,1,0,37,1,1,51,1,9,36,1,50,2,1,36,15,1,0,0,53,6,5,37
2018-09-02T23:59:59Z,37,52,42,33,52,37,42,33,6,10,0,0,0,0,0,0,39,12,28,27,0,52,0,37,51,0,36,0,52,0,37,0,9,42,1,8,31,6,50,1,1,36,19,1,51,0,1,37,14,1,50,1,1,36,19,1,51,0,1,37,14,1,51,0,1,37,14,1,51,0,1,37,14,1,1,50,1,5,36,1,49,2,1,36,15,1,49,2,1,36,15,1,0,51,1,5,37,1,0,51,1,0,37,1,1,50,1,9,36,1,49,2,1,36,15,1,0,0,52,6,5,37
2018-09-03T23:59:58Z,39,55,45,35,53,37,45,35,13,17,0,0,0,0,0,0,40,14,29,29,0,55,0,39,53,0,37,0,55,0,39,0,10,43,2,9,32,7,51,3,1,36,21,1,54,0,1,39,14,1,51,3,1,36,21,1,54,0,1,39,14,1,54,0,1,39,14,1,54,0,1,39,14,2,1,53,1,5,38,1,52,2,1,38,15,2,52,2,1,38,15,2,1,53,1,6,38,1,0,54,1,0,39,2,2,52,1,10,37,1,52,2,1,38,15,1,0,0,55,6,6,39
2018-09-04T23:59:58Z,38,54,44,34,54,38,44,34,13,15,0,0,0,0,0,0,40,13,29,28,0,54,0,38,53,0,37,0,54,0,38,0,10,43,1,9,32,6,51,2,1,36,20,1,53,0,1,38,14,1,51,2,1,36,20,1,53,0,1,38,14,1,53,0,1,38,14,1,53,0,1,38,14,1,1,52,1,5,37,1,51,2,1,37,15,1,51,2,1,37,15,1,0,53,1,5,38,1,0,53,1,0,38,1,1,52,1,9,37,1,51,2,1,37,15,1,0,0,54,6,6,38
2018-09-05T23:59:58Z,39,55,46,36,55,39,46,36,10,14,0,0,0,0,0,0,41,14,30,29,0,55,0,39,53,0,37,0,55,0,39,0,11,42,2,10,31,7,51,3,1,36,21,1,54,0,1,39,14,1,51,3,1,36,21,1,54,0,1,39,14,1,54,0,1,39,14,1,54,0,1,39,14,1,1,53,1,5,38,1,52,2,1,38,15,1,52,2,1,38,15,1,1,53,1,6,38,1,0,54,1,0,39,1,1,53,1,9,38,1,52,2,1,38,15,1,0,0,55,6,6,39
2018-09-06T23:59:59Z,40,56,47,37,56,40,47,37,18,18,0,0,0,0,0,0,43,13,32,29,0,56,0,40,55,0,39,0,56,0,40,0,11,44,1,10,33,6,53,2,1,38,21,1,55,0,1,40,15,1,53,2,1,38,21,1,55,0,1,40,15,1,55,0,1,40,15,1,55,0,1,40,15,1,1,54,1,5,40,1,53,2,1,39,16,1,53,2,1,39,16,1,0,55,1,6,40,1,0,55,1,0,40,1,1,54,1,8,40,2,53,2,1,39,16,1,0,0,56,7,7,40
2018-09-07T23:59:59Z,39,55,48,37,55,39,48,37,18,19,0,0,0,0,0,0,44,11,32,28,0,55,0,39,54,0,38,0,55,0,39,0,9,45,1,9,33,6,52,2,1,37,20,1,54,0,1,39,14,1,52,2,1,37,20,1,54,0,1,39,14,1,54,0,1,39,14,1,54,0,1,39,14,1,1,53,1,5,39,1,52,2,1,38,15,1,52,2,1,38,15,1,0,54,1,6,39,1,0,54,1,0,39,1,0,54,1,8,39,2,52,2,1,38,15,1,0,0,55,6,7,39
2018-09-08T23:59:57Z,39,55,48,37,55,39,48,37,13,16,0,0,0,0,0,0,43,12,31,29,0,55,0,39,53,0,37,0,55,0,39,0,9,44,2,9,32,7,51,3,1,36,21,1,54,0,1,39,14,1,51,3,1,36,21,1,54,0,1,39,14,1,54,0,1,39,14,1,54,0,1,39,14,1,1,53,1,5,39,1,52,2,1,38,15,1,52,2,1,38,15,1,1,53,1,7,38,1,0,54,1,0,39,1,1,53,1,9,38,2,52,2,1,38,15,1,0,0,55,6,7,39
2018-09-09T23:59:58Z,39,55,47,36,55,39,47,36,16,16,0,0,0,0,0,0,43,12,31,29,0,55,0,39,54,0,38,0,55,0,39,0,9,45,1,9,33,6,52,2,1,37,20,1,54,0,1,39,14,1,52,2,1,37,20,1,54,0,1,39,14,1,54,0,1,39,14,1,54,0,1,39,14,1,2,52,1,6,37,1,52,2,1,38,15,1,52,2,1,38,15,1,0,54,1,6,39,1,0,54,1,0,39,1,2,52,1,9,38,2,52,2,1,38,15,1,0,0,55,6,7,39
2018-09-10T23:59:58Z,39,55,47,36,55,39,47,36,17,19,0,0,0,0,0,0,43,12,31,29,0,55,0,39,54,0,38,0,55,0,39,0,9,45,1,9,33,6,52,2,1,37,20,1,54,0,1,39,14,1,52,2,1,37,20,1,54,0,1,39,14,1,54,0,1,39,14,1,54,0,1,39,14,1,2,52,1,6,38,1,52,2,1,38,15,1,52,2,1,38,15,1,0,54,1,6,39,1,0,54,1,0,39,1,1,53,1,9,38,2,52,2,1,38,15,1,0,0,55,6,7,39
2018-09-11T23:59:58Z,41,58,50,38,58,41,50,38,17,18,0,0,0,0,0,0,45,13,32,27,0,58,0,41,56,0,39,0,58,0,41,0,12,44,2,13,34,7,54,3,1,38,19,1,57,0,1,41,12,1,54,3,1,38,19,1,57,0,1,41,12,1,57,0,1,41,12,1,57,0,1,41,12,1,0,57,1,4,41,1,55,2,1,40,13,1,55,2,1,40,13,1,1,56,1,7,40,1,0,57,1,0,41,1,2,55,1,9,40,3,55,2,1,40,13,1,0,0,58,6,7,41
2018-09-12T23:59:59Z,43,60,49,38,60,43,49,38,15,18,0,0,0,0,0,0,46,14,33,29,0,60,0,43,59,0,42,0,60,0,43,0,13,46,1,13,36,6,57,2,1,41,20,1,59,0,1,43,14,1,57,2,1,41,20,1,59,0,1,43,14,1,59,0,1,43,14,1,59,0,1,43,14,1,1,58,1,5,42,1,57,2,1,42,15,1,57,2,1,42,15,1,0,59,1,6,43,1,0,59,1,0,43,1,1,58,1,7,42,5,57,2,1,42,15,1,0,0,60,7,7,43
2018-09-13T23:59:58Z,42,60,49,37,60,42,49,37,18,21,0,0,0,0,0,0,45,15,32,29,0,60,0,42,59,0,41,0,60,0,42,0,14,45,1,14,35,6,57,2,1,40,19,1,59,0,1,42,13,1,57,2,1,40,19,1,59,0,1,42,13,1,59,0,1,42,13,1,59,0,1,42,13,1,2,57,1,6,41,1,57,2,1,41,14,1,57,2,1,41,14,1,0,59,1,6,42,1,0,59,1,0,42,1,3,56,1,8,40,6,57,2,1,41,14,1,0,0,60,7,7,42
2018-09-14T23:59:59Z,42,59,48,37,59,42,48,37,22,22,0,0,0,0,0,0,45,14,32,28,0,59,0,42,58,0,41,0,59,0,42,0,13,45,1,13,35,6,56,2,1,40,19,1,58,0,1,42,13,1,56,2,1,40,19,1,58,0,1,42,13,1,58,0,1,42,13,1,58,0,1,42,13,1,1,57,1,5,41,1,56,2,1,41,14,1,56,2,1,41,14,1,0,58,1,6,42,1,0,58,1,0,42,1,2,56,1,6,41,7,56,2,1,41,14,1,0,0,59,7,7,42
2018-09-15T23:59:58Z,41,59,48,36,59,41,48,36,22,22,0,0,0,0,0,0,44,15,31,29,0,59,0,41,58,0,40,0,59,0,41,0,14,44,1,14,34,6,57,1,1,40,18,1,58,0,1,41,13,1,57,1,1,40,18,1,58,0,1,41,13,1,58,0,1,41,13,1,57,0,2,40,13,2,2,56,1,6,40,1,56,2,1,40,14,1,56,2,1,40,14,1,0,58,1,6,41,1,1,57,1,1,40,1,2,56,1,6,40,7,56,2,1,40,14,1,0,0,59,7,6,41
2018-09-16T23:59:57Z,42,60,49,37,60,42,49,37,15,18,0,0,0,0,0,0,44,16,32,30,0,60,0,42,58,1,40,1,60,0,42,0,14,44,2,14,35,7,57,2,1,40,19,1,59,0,1,42,14,1,57,2,1,40,19,1,59,0,1,42,14,1,59,0,1,42,14,1,59,0,1,42,14,1,2,57,1,6,41,1,57,2,1,41,15,1,57,2,1,41,15,1,1,58,1,7,42,1,0,59,1,0,42,1,1,57,2,5,41,8,57,2,1,41,15,1,0,0,60,7,6,42
2018-09-17T23:59:57Z,44,62,52,40,62,44,52,40,20,22,0,0,0,0,0,0,44,18,31,32,0,62,0,44,57,3,40,3,62,0,44,0,14,43,5,15,34,10,56,5,1,40,22,1,61,0,1,44,13,1,56,5,1,40,22,1,61,0,1,44,13,1,61,0,1,44,13,3,61,0,1,44,13,1,1,60,1,6,44,1,59,2,1,43,14,1,59,2,1,43,14,1,4,57,1,10,41,1,0,61,1,0,44,1,0,57,5,5,41,11,59,2,1,43,14,1,0,0,62,8,8,44
2018-09-18T23:59:58Z,44,62,51,39,62,44,51,39,21,22,0,0,0,0,0,0,46,16,32,30,0,62,0,44,59,1,41,1,62,0,44,0,13,46,3,13,36,8,58,3,1,41,20,1,61,0,1,44,14,1,58,3,1,41,20,1,61,0,1,44,14,1,61,0,1,44,14,1,61,0,1,44,14,1,2,59,1,6,43,1,59,2,1,43,15,1,59,2,1,43,15,1,2,59,1,8,43,1,0,61,1,0,44,1,2,57,3,6,42,9,59,2,1,43,15,1,0,0,62,7,6,44
2018-09-19T23:59:58Z,43,62,51,38,62,43,51,38,20,20,0,0,0,0,0,0,46,16,32,30,0,62,0,43,60,1,41,1,62,0,43,0,14,46,2,14,35,7,59,2,1,41,19,1,61,0,1,43,13,1,59,2,1,41,19,1,61,0,1,43,13,1,61,0,1,43,13,1,61,0,1,43,13,1,1,60,1,5,42,1,59,2,1,42,14,1,59,2,1,42,14,1,1,60,1,7,42,1,0,61,1,0,43,1,1,59,2,5,41,8,59,2,1,42,14,1,0,0,62,7,6,43
2018-09-20T23:59:57Z,44,64,53,39,64,44,53,39,18,21,0,0,0,0,0,0,48,16,33,31,0,64,0,44,61,0,41,0,64,0,44,0,14,48,2,14,36,7,61,2,1,42,20,1,63,0,1,44,14,1,61,2,1,42,20,1,63,0,1,44,14,1,63,0,1,44,14,1,63,0,1,44,14,1,1,62,1,5,43,1,61,2,1,43,15,1,61,2,1,43,15,1,1,62,1,7,43,1,0,63,1,0,44,1,1,61,2,5,42,8,61,2,1,43,15,1,0,0,64,7,6,44
2018-09-21T23:59:58Z,47,66,55,42,66,47,55,42,26,26,0,0,0,0,0,0,47,19,33,34,0,66,0,47,61,2,44,2,66,0,47,0,14,47,5,16,38,10,60,5,1,44,23,1,65,0,1,47,14,1,60,5,1,44,23,1,65,0,1,47,14,1,65,0,1,47,14,1,65,0,1,47,14,1,1,64,1,7,46,1,63,2,1,46,15,1,63,2,1,46,15,1,4,61,1,10,46,1,0,65,1,0,47,1,1,60,5,8,44,11,63,2,1,46,15,1,0,0,66,9,9,47
2018-09-22T23:59:57Z,44,63,53,40,63,44,53,40,16,19,0,0,0,0,0,0,47,16,33,31,0,63,0,44,60,0,41,0,63,0,44,0,14,46,3,14,35,8,59,3,1,41,21,1,62,0,1,44,14,1,59,3,1,41,21,1,62,0,1,44,14,1,62,0,1,44,14,1,62,0,1,44,14,1,2,60,1,6,43,1,60,2,1,43,15,1,60,2,1,43,15,1,2,60,1,8,42,1,0,62,1,0,44,1,0,60,3,5,42,8,60,2,1,43,15,1,0,0,63,7,6,44
2018-09-23T23:59:59Z,47,65,54,42,65,47,54,42,17,20,0,0,0,0,0,0,47,18,34,33,0,65,0,47,60,1,43,1,65,0,47,0,13,47,5,14,40,10,59,5,1,43,23,1,64,0,1,47,16,1,59,5,1,43,23,1,64,0,1,47,16,1,64,0,1,47,16,1,64,0,1,47,16,1,2,62,1,7,46,1,62,2,1,46,17,1,62,2,1,46,17,1,4,60,1,10,46,1,0,64,1,0,47,1,1,59,5,8,46,10,62,2,1,46,17,1,0,0,65,9,7,47